This is the latest recevied weather packets stored in our database for station/object GUNLAK-WX. If no packets are shown the sender has not sent any weather packets the latest 10 day(s).
| Time | Temp. | Humidity | Pressure | Rain* | Wind** | Luminosity | Snow |
|---|---|---|---|---|---|---|---|
| 1777348907 | 15° C | 88% | 978.3 hPa | 2.29 mm | - | - | - |
| 1777347974 | 15° C | 83% | 979.9 hPa | 4.83 mm | - | - | - |
| 1777347087 | 15° C | 83% | 980.3 hPa | 4.83 mm | - | - | - |
| 1777346170 | 15.56° C | 83% | 980.4 hPa | 0.25 mm | - | - | - |
| 1777345301 | 16.11° C | 83% | 980.4 hPa | 0.25 mm | - | - | - |
| 1777344369 | 16.11° C | 80% | 977.8 hPa | 0 mm | - | - | - |
| 1777343484 | 16.11° C | 83% | 978.3 hPa | 0 mm | - | - | - |
| 1777342572 | 15.56° C | 83% | 978.3 hPa | 0 mm | - | - | - |
| 1777341695 | 16.11° C | 83% | 978.3 hPa | 0 mm | - | - | - |
| 1777340774 | 16.11° C | 83% | 977.3 hPa | 0 mm | - | - | - |
| 1777339884 | 16.11° C | 83% | 977.3 hPa | 0 mm | - | - | - |
| 1777338974 | 15.56° C | 83% | 977.3 hPa | 0 mm | - | - | - |
| 1777338097 | 16.11° C | 83% | 977.3 hPa | 0 mm | - | - | - |
| 1777337170 | 16.11° C | 80% | 980.1 hPa | 0 mm | - | - | - |
| 1777336283 | 16.11° C | 84% | 979.2 hPa | 0 mm | - | - | - |
| 1777335375 | 16.11° C | 84% | 979.2 hPa | 0 mm | - | - | - |
| 1777334512 | 16.11° C | 84% | 979.2 hPa | 0 mm | - | - | - |
| 1777333576 | 16.67° C | 83% | 979.8 hPa | 0 mm | - | - | - |
| 1777332689 | 17.22° C | 83% | 978.7 hPa | 0 mm | - | - | - |
| 1777331775 | 17.22° C | 83% | 978.7 hPa | 0 mm | - | - | - |
| 1777330895 | 17.22° C | 83% | 978.7 hPa | 0 mm | - | - | - |
| 1777329976 | 17.22° C | 84% | 979.6 hPa | 0 mm | - | - | - |
| 1777329089 | 16.67° C | 87% | 980.6 hPa | 0 mm | - | - | - |
| 1777328174 | 16.67° C | 87% | 980.6 hPa | 0.25 mm | - | - | - |
| 1777327298 | 16.11° C | 87% | 980.6 hPa | 0.25 mm | - | - | - |
* Rain latest hour (hover to see other rain measurements)
** Current wind speed in m/s (hover to see current wind gust speed)